Погода в Уржумском

Россия / Ульяновская область     54°17′24″N   47°50′00″E
темп.,
°C
ветер,
м/с
пор.,
м/с
влажн.,
%
обл.,
%
осадки,
мм/ч
давл.,
гПа
погр.,
м
27 октября, ср
ср2701:00+1зюз61468100 0.0 1023419
04:00+1зюз61470100 0.0 1022422
07:00+1зюз61469100 0.0 1021422
10:00+3зюз61461100 0.0 1021474
13:00+6зюз71550100 0.0 1019633
16:00+7юз71547100 0.0 1017744
19:00+5юз71649100 0.0 1017671
22:00+4юз8174564 0.0 1015684
28 октября, чт
чт2801:00+4зюз81647100 0.0 1014757
04:00+3зюз81579100 0.4 1014899
07:00+5зюз61287100 0.0 1014599
10:00+6зюз61178100 0.0 1015569
13:00+8з6959100 0.0 10151361
16:00+8зюз4862100 0.0 1014919
19:00+6ююз497499 0.0 1014386
22:00+5юз4785100 0.8 1014876
29 октября, пт
пт2901:00+5в1195100 2.1 1014124
04:00+4ссв4893100 2.8 1017853
07:00+1ссв71184100 0.3 1023640
10:00−2св69644 0.3 1027542
13:00+1ссв56490 0.0 1030738
16:00+1св45475 0.0 1031669
19:00−1всв11595 0.0 103316
22:00−1ю235878 0.0 103372
30 октября, сб
сб3001:00−1юз375993 0.0 1033258
04:00−1юз4115880 0.0 1032287
07:00−1зюз5125957 0.0 1032286
10:00+2зюз614595 0.0 1031376
13:00+7з613635 0.0 1030516
16:00+7з7147029 0.0 1030473
19:00+5з6148069 0.0 1031348
22:00+4з6158274 0.0 1031332
31 октября, вс
вс3101:00+4з514815 0.0 1031302
04:00+3з413848 0.0 1032265
07:00+3з4128544 0.0 1032232
10:00+5з512758 0.0 1032304
13:00+9з610605 0.0 1032431
16:00+9зюз511585 0.0 1031425
19:00+6зюз512666 0.0 1031270
22:00+5зюз412645 0.0 1031233